TimeCDT,TemperatureF,Dew PointF,Humidity,Sea Level PressureIn,VisibilityMPH,Wind Direction,Wind SpeedMPH,Gust SpeedMPH,PrecipitationIn,Events,Conditions,WindDirDegrees,DateUTC
12:15 AM,60.8,59.4,95,29.97,10.0,NNW,9.2,-,0.01,,Unknown,340,2013-04-04 05:15:00
12:35 AM,61.0,59.4,94,29.97,10.0,NNW,12.7,-,0.01,,Unknown,340,2013-04-04 05:35:00
12:55 AM,61.0,59.0,93,29.96,10.0,NNW,8.1,11.5,0.01,,Unknown,340,2013-04-04 05:55:00
1:15 AM,61.3,59.4,93,29.95,10.0,North,13.8,-,N/A,,Unknown,350,2013-04-04 06:15:00
1:35 AM,61.5,59.4,93,29.94,10.0,North,8.1,-,N/A,,Unknown,360,2013-04-04 06:35:00
1:55 AM,61.3,59.0,92,29.94,10.0,North,6.9,-,N/A,,Unknown,350,2013-04-04 06:55:00
2:15 AM,61.3,59.2,93,29.93,10.0,North,5.8,-,N/A,,Unknown,10,2013-04-04 07:15:00
2:35 AM,61.5,59.2,92,29.93,10.0,North,-9999.0,-,N/A,,Unknown,0,2013-04-04 07:35:00
2:55 AM,61.2,59.0,93,29.94,10.0,Calm,Calm,-,N/A,,Unknown,0,2013-04-04 07:55:00
3:15 AM,60.8,59.0,94,29.93,7.0,NW,4.6,-,N/A,,Unknown,320,2013-04-04 08:15:00
3:35 AM,60.3,59.0,96,29.94,7.0,WNW,5.8,-,N/A,,Unknown,300,2013-04-04 08:35:00
3:55 AM,59.5,58.6,97,29.93,5.0,NW,5.8,-,N/A,,Mist,310,2013-04-04 08:55:00
4:15 AM,59.0,58.5,98,29.91,7.0,Calm,Calm,-,0.01,,Unknown,0,2013-04-04 09:15:00
4:35 AM,59.0,58.8,99,29.89,7.0,NNE,4.6,-,0.01,,Unknown,20,2013-04-04 09:35:00
4:55 AM,59.9,59.4,98,29.90,7.0,North,3.5,-,0.01,,Unknown,360,2013-04-04 09:55:00
5:15 AM,60.3,59.7,98,29.92,5.0,WNW,6.9,-,N/A,,Mist,290,2013-04-04 10:15:00
5:35 AM,59.0,58.8,99,29.93,3.0,WNW,8.1,-,N/A,,Mist,290,2013-04-04 10:35:00
5:55 AM,57.4,57.4,100,29.94,1.5,WNW,9.2,-,N/A,,Mist,290,2013-04-04 10:55:00
6:15 AM,56.1,56.1,100,29.95,1.2,WNW,5.8,-,N/A,,Mist,300,2013-04-04 11:15:00
6:35 AM,54.9,54.9,100,29.96,1.2,NW,6.9,-,N/A,,Mist,310,2013-04-04 11:35:00
6:55 AM,53.6,53.6,100,29.96,2.0,NW,5.8,-,N/A,,Mist,310,2013-04-04 11:55:00
7:15 AM,52.7,52.7,100,29.97,1.2,NW,8.1,-,N/A,,Mist,310,2013-04-04 12:15:00
7:35 AM,51.8,51.8,100,29.97,1.2,WNW,8.1,-,N/A,Rain,Light Rain,290,2013-04-04 12:35:00
7:55 AM,51.3,51.3,100,29.98,1.2,WNW,10.4,-,N/A,Rain,Light Rain,300,2013-04-04 12:55:00
8:15 AM,50.9,50.9,100,29.99,1.0,WNW,10.4,-,N/A,Rain,Light Rain,290,2013-04-04 13:15:00
8:35 AM,50.4,50.4,100,29.98,1.5,NW,8.1,-,N/A,Rain,Light Rain,320,2013-04-04 13:35:00
8:55 AM,50.2,50.2,100,29.99,2.5,NW,9.2,-,N/A,,Mist,320,2013-04-04 13:55:00
9:15 AM,50.2,50.2,100,30.00,5.0,NW,8.1,-,N/A,,Mist,310,2013-04-04 14:15:00
9:35 AM,50.4,50.4,100,30.00,7.0,WNW,9.2,-,N/A,,Unknown,290,2013-04-04 14:35:00
9:55 AM,51.3,51.3,100,30.01,7.0,WNW,10.4,-,N/A,,Unknown,290,2013-04-04 14:55:00
10:15 AM,52.7,52.3,99,30.02,5.0,WNW,5.8,-,N/A,,Mist,300,2013-04-04 15:15:00
10:35 AM,58.5,57.0,95,30.01,5.0,NW,5.8,-,N/A,,Mist,310,2013-04-04 15:35:00
10:55 AM,61.3,57.2,86,30.02,7.0,West,8.1,-,N/A,,Unknown,270,2013-04-04 15:55:00
11:35 AM,61.9,56.7,83,30.02,7.0,West,9.2,-,N/A,,Unknown,280,2013-04-04 16:35:00
11:55 AM,62.2,56.5,81,30.02,10.0,West,10.4,-,N/A,,Unknown,270,2013-04-04 16:55:00
12:15 PM,62.6,56.7,81,30.00,10.0,WSW,6.9,-,N/A,,Unknown,250,2013-04-04 17:15:00
12:35 PM,63.0,56.8,80,30.00,10.0,West,9.2,-,N/A,,Unknown,260,2013-04-04 17:35:00
12:55 PM,63.1,57.4,81,30.00,10.0,WNW,10.4,-,N/A,,Unknown,290,2013-04-04 17:55:00
1:15 PM,64.4,57.9,79,29.99,10.0,WNW,10.4,-,N/A,,Unknown,290,2013-04-04 18:15:00
1:35 PM,64.9,57.4,76,29.98,10.0,WNW,9.2,17.3,N/A,,Unknown,290,2013-04-04 18:35:00
1:55 PM,64.6,57.0,76,29.97,10.0,West,11.5,18.4,N/A,,Unknown,280,2013-04-04 18:55:00
2:15 PM,64.9,56.8,75,29.97,10.0,WSW,9.2,-,N/A,,Unknown,250,2013-04-04 19:15:00
2:35 PM,64.4,57.2,77,29.96,10.0,West,6.9,-,N/A,,Unknown,280,2013-04-04 19:35:00
2:55 PM,65.8,57.4,74,29.96,10.0,West,10.4,-,N/A,,Unknown,270,2013-04-04 19:55:00
3:15 PM,65.7,56.8,73,29.95,10.0,WNW,8.1,-,N/A,,Unknown,290,2013-04-04 20:15:00
3:35 PM,65.7,56.5,72,29.94,10.0,West,11.5,-,N/A,,Unknown,260,2013-04-04 20:35:00
3:55 PM,64.6,56.3,74,29.94,10.0,WNW,6.9,-,N/A,,Unknown,290,2013-04-04 20:55:00
4:15 PM,64.4,56.1,74,29.94,10.0,West,10.4,-,N/A,,Unknown,280,2013-04-04 21:15:00
4:35 PM,63.0,55.6,77,29.93,10.0,WNW,11.5,-,N/A,,Unknown,290,2013-04-04 21:35:00
4:55 PM,63.1,55.4,76,29.93,10.0,WNW,5.8,-,N/A,,Unknown,290,2013-04-04 21:55:00
5:15 PM,62.8,55.2,76,29.94,10.0,WNW,10.4,-,N/A,,Unknown,300,2013-04-04 22:15:00
5:35 PM,62.1,54.9,77,29.94,10.0,WNW,9.2,-,N/A,,Unknown,300,2013-04-04 22:35:00
5:55 PM,62.1,54.5,76,29.94,10.0,WNW,8.1,-,N/A,,Unknown,300,2013-04-04 22:55:00
6:15 PM,61.9,54.5,77,29.94,10.0,WNW,5.8,-,N/A,,Unknown,290,2013-04-04 23:15:00
6:35 PM,61.3,54.7,79,29.94,10.0,NW,5.8,-,N/A,,Unknown,310,2013-04-04 23:35:00
6:55 PM,61.0,54.1,78,29.95,10.0,NW,8.1,-,N/A,,Unknown,310,2013-04-04 23:55:00
7:15 PM,60.6,53.6,78,29.96,10.0,WNW,11.5,-,N/A,,Unknown,300,2013-04-05 00:15:00
7:35 PM,60.1,53.2,78,29.97,10.0,NW,8.1,-,N/A,,Unknown,310,2013-04-05 00:35:00
7:55 PM,59.7,52.5,77,29.97,10.0,NW,12.7,-,N/A,,Unknown,310,2013-04-05 00:55:00
8:15 PM,59.0,51.6,76,29.97,10.0,NW,12.7,-,N/A,,Unknown,310,2013-04-05 01:15:00
8:35 PM,58.1,51.4,78,29.97,10.0,WNW,13.8,17.3,N/A,,Unknown,300,2013-04-05 01:35:00
8:55 PM,57.2,51.4,81,29.98,10.0,WNW,11.5,16.1,N/A,,Unknown,290,2013-04-05 01:55:00
9:15 PM,56.7,50.9,81,30.00,10.0,West,11.5,18.4,N/A,,Unknown,280,2013-04-05 02:15:00
9:35 PM,56.3,50.2,80,30.01,10.0,WNW,11.5,20.7,N/A,,Unknown,290,2013-04-05 02:35:00
9:55 PM,55.6,49.8,81,30.02,10.0,WNW,13.8,19.6,N/A,,Unknown,290,2013-04-05 02:55:00
10:15 PM,55.4,49.5,80,30.03,10.0,West,16.1,21.9,N/A,,Unknown,280,2013-04-05 03:15:00
10:35 PM,54.7,49.1,81,30.03,10.0,WNW,11.5,-,N/A,,Unknown,290,2013-04-05 03:35:00
10:55 PM,54.5,49.5,83,30.03,10.0,WNW,10.4,-,N/A,,Unknown,290,2013-04-05 03:55:00
11:15 PM,54.5,49.3,83,30.03,10.0,WNW,10.4,-,N/A,,Unknown,300,2013-04-05 04:15:00
11:35 PM,54.3,49.1,83,30.04,10.0,WNW,12.7,16.1,N/A,,Unknown,300,2013-04-05 04:35:00
11:55 PM,54.0,48.4,81,30.04,10.0,WNW,12.7,19.6,N/A,,Unknown,300,2013-04-05 04:55:00